Kingman, AZ

4:59 PM MST on June 22, 2017 (GMT -0700)
Kingman

Weather History for KIGM - September, 2012

Change the Weather History Date:

Sunday, September 23, 2012

  Actual Average Record
Temperature  
Mean Temperature 79 °F 73 °F  
Max Temperature 94 °F 87 °F 105 °F (1922)
Min Temperature 64 °F 59 °F 38 °F (1941)
Degree Days  
Heating Degree Days 0 0  
Month to date heating degree days 0 0  
Since 1 July heating degree days 0 0  
Cooling Degree Days 14 8  
Month to date cooling degree days 315 278  
Year to date cooling degree days 2143 1979  
Growing Degree Days 28 (Base 50)    
Moisture  
Dew Point 36 °F    
Average Humidity 24    
Maximum Humidity 34    
Minimum Humidity 13    
Precipitation  
Precipitation 0.00 in 0.03 in 0.18 in (1935)
Month to date precipitation 0.25 0.92  
Year to date precipitation 6.52 6.19  
Sea Level Pressure  
Sea Level Pressure 29.87 in    
Wind  
Wind Speed 8 mph (South)    
Max Wind Speed 13 mph    
Max Gust Speed 13 mph    
Visibility 10 miles    
Events      
T = Trace of Precipitation, MM = Missing Value Source: NWS Daily Summary

Daily Weather History Graph

Daily Weather History Graph

Search for Another Location

Airport or City:

Trip Planner

Search our weather history database for the weather conditions in past years. The results will help you decide how hot, cold, wet, or windy it might be!

Date:

Astronomy

Sep. 23, 2012 Rise Set
Actual Time 6:24 AM MST 6:30 PM MST
Civil Twilight 5:59 AM MST 6:55 PM MST
Nautical Twilight 5:30 AM MST 7:25 PM MST
Astronomical Twilight 5:00 AM MST 7:54 PM MST
Moon 2:23 PM MST (9/23) No Moon Set
Length of Visible Light 12h 56m
Length of Day
12h 05m
First Quarter, 61% of the Moon is Illuminated
Sep 23
First Quarter
Sep 29
Full
Oct 8
Last Quarter
Oct 15
New
Oct 21
First Quarter

Hourly Weather History & Observations

Time (MST) Temp. Dew Point Humidity Pressure Visibility Wind Dir Wind Speed Gust Speed Precip Events Conditions
12:51 AM 66.0 °F 35.1 °F 32% 29.85 in 10.0 mi Calm Calm - N/A   Clear
1:52 AM 66.0 °F 36.0 °F 33% 29.85 in - SSE 3.5 mph - N/A   Unknown
2:51 AM 66.9 °F 36.0 °F 32% 29.83 in 10.0 mi ESE 4.6 mph - N/A   Clear
3:51 AM 69.1 °F 37.0 °F 31% 29.84 in 10.0 mi SE 6.9 mph - N/A   Clear
4:51 AM 64.0 °F 36.0 °F 35% 29.86 in 10.0 mi SE 4.6 mph - N/A   Clear
5:51 AM 69.1 °F 37.0 °F 31% 29.86 in 10.0 mi South 3.5 mph - N/A   Clear
6:51 AM 70.0 °F 37.0 °F 30% 29.89 in 10.0 mi SSE 3.5 mph - N/A   Clear
7:51 AM 75.9 °F 39.0 °F 26% 29.91 in 10.0 mi South 3.5 mph - N/A   Clear
8:51 AM 79.0 °F 39.9 °F 25% 29.91 in 10.0 mi Calm Calm - N/A   Clear
9:51 AM 86.0 °F 37.0 °F 18% 29.91 in 10.0 mi WSW 4.6 mph - N/A   Clear
10:51 AM 89.1 °F 36.0 °F 15% 29.90 in 10.0 mi SW 5.8 mph - N/A   Clear
11:51 AM 91.0 °F 35.1 °F 14% 29.90 in 10.0 mi South 8.1 mph 18.4 mph N/A   Clear
12:51 PM 93.0 °F 35.1 °F 13% 29.88 in 10.0 mi SSW 13.8 mph 23.0 mph N/A   Clear
1:51 PM 93.0 °F 35.1 °F 13% 29.87 in 10.0 mi SSW 16.1 mph 24.2 mph N/A   Clear
2:51 PM 91.9 °F 36.0 °F 14% 29.85 in 10.0 mi SW 15.0 mph 23.0 mph N/A   Clear
3:51 PM 91.9 °F 36.0 °F 14% 29.84 in 10.0 mi SW 15.0 mph 28.8 mph N/A   Clear
4:51 PM 91.0 °F 36.0 °F 14% 29.85 in 10.0 mi SSW 13.8 mph 23.0 mph N/A   Clear
5:51 PM 88.0 °F 35.1 °F 15% 29.84 in 10.0 mi SW 13.8 mph - N/A   Clear
6:51 PM 82.0 °F 35.1 °F 18% 29.86 in 10.0 mi SSW 8.1 mph - N/A   Clear
7:51 PM 77.0 °F 33.1 °F 20% 29.86 in 10.0 mi South 9.2 mph - N/A   Unknown
8:51 PM 73.9 °F 33.1 °F 22% 29.87 in 10.0 mi SSE 10.4 mph - N/A   Clear
9:51 PM 72.0 °F 33.1 °F 24% 29.86 in 10.0 mi SSE 10.4 mph - N/A   Clear
10:51 PM 71.1 °F 33.1 °F 25% 29.84 in 10.0 mi SSE 11.5 mph - N/A   Clear
11:51 PM 71.1 °F 33.1 °F 25% 29.84 in 10.0 mi Calm Calm - N/A   Clear